Hourly Weather Roundup
Issued by NWS Central Illinois

Home | Current Version | Previous Version | Graphics & Text | Print | Product List | Glossary On
Versions: 1 2 3 4 5 6 7 8 9 10 11 12 13 14 15 16 17 18 19 20 21 22 23 24 25 26 27 28 29 30 31 32 33 34 35 36 37 38 39 40 41 42 43 44 45 46 47 48 49 50
000
NZUS43 KILX 230910
HWRILX

Area Weather Roundup
National Weather Service Lincoln IL
400 AM CDT WED AUG 23 2017

NOTE:  "FAIR" indicates few or no clouds below 12,000 feet, with
       no sigificant weather and/or obstructions to visibility.


CITY           SKY/WX    TMP DP  RH WIND       PRES   REMARKS
Bloomington    CLEAR     56  53  90 W6        30.08R
Champaign      CLEAR     56  53  90 NW5       30.05S
Danville       CLEAR     56  54  93 NW7       30.01S
Decatur        PTCLDY    60  55  83 NW9       30.06F
Effingham      CLEAR     59  58  97 NW5       30.06S
Flora          CLEAR     61  58  89 NW5       30.04S
Galesburg      CLEAR     53  51  94 W5        30.10S
Jacksonville   CLEAR     55  53  94 NW3       30.09S
Lacon          CLEAR     53  52  97 CALM      30.06S
Lawrenceville  CLEAR     60  58  92 NW6       30.03S
Litchfield     CLEAR     54  53  97 N5        30.07S
$$


CITY           SKY/WX    TMP DP  RH WIND       PRES   REMARKS
Lincoln        PTCLDY    58  55  89 NW3       30.07S
Macomb         CLEAR     54  53  96 W6        30.12S
Mattoon        CLEAR     57  56  96 NW7       30.04S
Mt Carmel AP   CLEAR     60  57  92 NW7       30.03S
Olney-Noble AP CLEAR     58  56  93 NW5       30.04S
Paris AP       CLEAR     55  54  97 NW6       30.05S
Peoria         CLEAR     57  54  89 NW5       30.08R
Pontiac        CLEAR     54  54  99 CALM      30.06S
Rantoul        PTCLDY    58  56  93 NW7       30.05F
Robinson       CLEAR     57  56  96 CALM      30.04R
Springfield    PTCLDY    57  55  93 W3        30.09S
Taylorville    CLEAR     56  55  94 NW3       30.07F
$$

...REGIONAL REPORTS...


CITY           SKY/WX    TMP DP  RH WIND       PRES   REMARKS
Chicago O`Hare CLEAR     62  50  64 NW9       30.01S
Kankakee       CLEAR     55  54  94 W8        30.04S
Moline         CLEAR     57  51  80 W5        30.08S
Mount Sterling PTCLDY    55  52  89 W7        30.11R
Mount Vernon     N/A     58  57  97 CALM      30.05S
Pittsfield     CLEAR     58  54  86 W5        30.11F
Quincy         CLEAR     56  53  90 NW6       30.11S
Rockford       CLEAR     55  50  83 W5        30.05F
$$


CITY           SKY/WX    TMP DP  RH WIND       PRES   REMARKS
Burlington     CLEAR     56  53  90 NW7       30.10S
Cedar Rapids   CLEAR     51  50  96 NW5       30.10S
Des Moines     CLEAR     57  53  86 W3        30.14S
Kirksville     CLEAR     55  32  41 NW6       30.15S
Ottumwa        CLEAR     54  52  93 W6        30.13S
St Louis       CLEAR     60  57  89 NW3       30.09S
$$


CITY           SKY/WX    TMP DP  RH WIND       PRES   REMARKS
Terre Haute    CLEAR     60  55  83 N6        30.02S
Evansville     CLEAR     65  59  81 N5        30.02S
Indianapolis   PTCLDY    60  57  89 NW8       30.00S
Lafayette      PTCLDY    57  57 100 SW3       30.02R
Madison        CLEAR     57  51  80 VRB6      30.02S
Milwaukee      CLEAR     62  51  67 W7        29.99S
$$





USA.gov is the U.S. government's official web portal to all federal, state and local government web resources and services.